Probability
0 0 0 0 0 0 0 0 0 0 0 0 0 0 0 0 0 0 0 0 0 0 0 0 0 0 0 0 1 2 2 2 3 4 4 4 4 5
0 0 0 0 0 0 0 0 0 0 0 0 0 0 0 0 0 0 0 0 0 0 0 0 0 0 0 0 0 1 1 1 2 3 3 3 3 4
1 1 2 1 1 1 1 0 0 0 0 0 0 0 0 0 0 0 0 0 0 0 0 0 0 0 0 0 0 0 0 0 1 1 2 3 3 3
2 3 3 3 2 2 2 1 1 1 0 0 0 0 0 0 0 0 0 0 0 0 0 0 0 0 0 0 0 0 0 0 0 0 1 1 2 2
3 3 3 3 4 4 4 3 2 2 1 1 1 1 0 0 0 0 0 0 0 0 0 0 0 0 0 0 0 0 0 0 0 0 0 0 1 1
3 3 3 4 5 5 5 5 5 4 3 2 1 0 0 0 0 0 0 0 0 0 0 0 0 0 0 0 0 0 0 0 0 0 0 0 0 0
3 3 3 3 4 4 4 4 5 5 5 3 1 0 0 0 0 0 0 0 0 0 0 0 0 0 0 0 0 0 0 0 0 0 0 0 0 0
4 4 4 3 2 2 2 1 2 4 5 4 2 2 2 1 0 0 0 0 0 0 0 0 0 0 0 0 0 0 0 0 0 0 0 0 0 0
6 6 5 4 4 3 2 1 2 2 3 4 4 4 4 3 2 2 0 0 0 1 1 1 0 0 0 0 0 0 0 0 0 0 0 0 0 0
6 6 7 6 5 4 4 4 4 4 2 2 3 4 4 4 4 3 1 0 0 1 1 1 0 0 0 0 0 0 0 0 0 0 0 0 0 0
5 4 5 5 3 2 4 6 8 7 4 1 1 1 2 2 2 2 1 0 0 0 1 1 0 1 1 0 0 0 0 0 0 0 0 0 0 0
4 3 2 2 1 0 2 5 8 7 6 5 4 3 2 1 1 1 1 0 0 0 0 1 1 1 1 0 0 0 0 0 0 0 0 0 0 0
2 3 2 1 0 0 1 2 4 4 5 6 6 7 6 5 4 4 4 3 2 1 1 1 1 1 0 0 0 0 1 1 1 1 1 0 0 0
1 2 2 1 0 0 0 0 0 1 2 3 4 6 8 9 10 10 9 8 7 4 3 2 1 1 1 0 0 0 1 2 3 3 3 2 1 0
0 1 1 0 0 0 0 0 0 0 0 0 1 4 7 11 13 13 12 12 9 6 4 3 2 2 1 0 0 0 2 3 5 5 5 5 3 2
1 1 0 0 0 0 0 0 1 1 0 0 2 5 9 11 12 11 11 10 7 6 5 5 4 2 1 0 0 1 2 3 4 5 6 6 5 5
2 1 0 0 1 1 2 3 4 4 3 4 6 11 13 13 11 10 9 7 5 4 4 4 4 3 1 0 0 1 2 3 3 4 3 4 5 5
1 1 0 0 2 4 6 7 6 7 10 12 13 16 16 13 12 10 9 8 5 4 3 3 3 3 1 0 0 0 1 1 2 2 1 1 2 3
0 0 0 1 2 5 6 5 5 9 15 18 18 17 14 11 8 7 6 6 6 4 3 2 2 1 0 0 0 0 0 0 1 1 0 0 0 1
0 0 1 2 3 4 3 2 3 7 13 16 15 13 11 8 5 3 2 2 2 2 1 1 1 0 0 0 0 0 0 0 0 0 0 0 0 0
0 0 2 3 3 2 0 1 2 5 8 9 8 8 7 5 3 2 0 0 0 0 0 1 1 1 0 0 0 0 0 0 0 1 0 0 0 0
1 0 1 2 2 1 0 0 1 2 4 5 5 5 4 2 1 1 0 0 0 0 0 1 2 3 1 0 0 0 0 0 0 0 0 0 0 0
1 1 0 1 1 0 0 0 0 1 2 3 4 3 1 0 0 0 0 0 0 0 0 1 3 4 2 1 0 0 0 0 0 0 0 0 0 0
Wind_Speed
4 5 5 3 3 3 4 5 6 7 5 1 3 1 3 4 2 6 7 1 2 5 5 5 6 6 7 8 9 10 11 12 13 14 14 16 18 20
4 4 5 5 3 4 4 4 5 7 7 5 4 5 5 7 4 6 8 5 9 8 7 6 7 7 8 8 9 10 11 12 13 14 15 15 16 18
6 6 7 6 5 5 5 5 5 6 8 7 6 5 5 8 7 7 8 8 8 11 9 8 8 9 9 9 9 9 10 11 12 13 15 16 17 18
7 7 7 6 7 7 6 6 6 6 8 9 8 7 7 7 8 8 9 8 9 6 9 9 10 10 10 11 11 11 10 11 11 12 13 15 16 18
8 8 8 8 8 7 7 7 7 7 7 9 9 7 7 7 8 9 10 8 10 8 11 13 13 12 12 12 12 12 12 12 12 12 13 13 14 16
9 9 9 9 9 9 8 9 8 8 8 9 9 8 7 7 7 8 8 7 8 9 8 7 10 13 14 14 14 13 13 13 13 13 13 13 14 14
10 10 11 10 8 8 8 8 8 8 8 8 9 8 8 6 7 7 8 8 8 8 8 8 8 10 11 15 17 15 14 13 13 13 14 14 14 14
11 11 11 11 12 14 14 13 12 11 11 10 9 9 9 9 7 8 8 9 9 6 7 9 9 9 9 10 9 12 13 13 13 13 14 14 14 15
11 11 11 10 11 12 14 17 17 18 16 14 14 13 11 10 9 10 9 10 10 9 8 10 10 10 10 9 8 10 12 13 13 14 14 14 14 15
13 13 13 13 12 12 12 13 14 14 15 15 14 14 13 10 9 11 11 11 12 11 11 12 11 11 10 10 10 14 14 14 14 14 14 14 15 15
14 14 14 14 12 11 13 15 15 13 14 15 15 14 12 10 9 10 11 11 12 10 9 10 11 10 10 11 10 15 16 16 16 15 15 14 14 13
12 13 15 16 14 13 14 15 16 14 13 11 13 15 16 16 16 14 13 12 12 11 9 9 10 10 11 10 9 8 11 14 17 16 16 15 13 11
11 11 11 14 17 16 16 15 15 13 13 13 12 13 12 12 13 14 14 13 13 12 9 8 10 10 11 10 9 9 9 9 10 12 15 17 15 13
12 12 10 8 12 15 15 15 15 12 12 13 12 12 12 11 11 12 13 14 13 15 13 12 11 11 12 12 11 10 9 9 9 10 10 12 15 17
12 14 13 11 10 12 17 17 15 13 13 14 14 13 12 11 10 9 12 13 15 15 15 15 14 13 13 13 13 12 11 10 10 10 10 10 10 10
12 13 14 16 15 15 13 13 13 14 14 14 14 13 11 11 11 11 11 11 12 12 14 16 16 16 14 15 13 13 12 12 10 10 10 10 10 10
10 11 12 12 12 12 13 13 13 13 14 14 14 13 12 12 11 11 10 11 12 12 11 10 13 13 15 14 13 13 13 12 12 11 10 11 11 11
10 13 14 14 14 14 13 12 12 12 13 13 13 13 12 12 11 11 11 11 12 12 12 10 9 9 11 12 14 15 14 13 12 12 12 12 13 12
11 13 14 14 13 13 12 12 12 11 11 11 12 12 12 11 11 11 10 11 11 12 11 10 10 11 12 13 13 17 15 13 12 12 12 12 13 11
11 12 13 12 12 12 12 12 12 11 10 11 11 12 11 12 12 11 10 12 11 11 11 11 11 12 13 13 11 10 15 14 12 12 12 11 12 11
10 10 11 11 11 11 11 10 11 10 11 10 11 12 11 11 11 11 11 11 11 11 12 12 11 11 11 10 11 12 12 15 15 12 12 11 11 11
10 10 10 10 10 10 9 9 10 10 10 10 11 10 10 10 11 12 11 10 10 11 13 11 10 9 10 12 13 14 14 11 13 16 15 14 12 11
10 10 10 10 9 8 8 9 10 9 9 10 9 9 10 9 9 10 10 10 10 11 11 11 9 9 11 12 13 13 16 14 11 11 12 15 18 17
Wind_Direction
231 219 248 260 257 271 277 287 297 302 303 265 261 269 286 296 319 291 289 188 285 289 289 286 276 263 255 251 245 241 238 235 236 238 239 239 236 232
245 257 258 259 256 256 262 266 271 285 293 303 293 293 317 306 267 281 280 250 239 244 255 268 273 270 260 254 251 245 242 239 237 236 236 237 237 236
233 234 241 261 264 263 254 257 260 267 277 285 288 286 278 281 292 286 276 270 256 210 223 248 260 264 260 256 253 250 246 243 241 239 238 237 237 236
237 238 243 241 242 258 263 263 263 267 271 282 287 284 277 275 274 278 276 270 274 214 206 234 248 253 255 253 252 250 249 248 246 243 240 238 237 237
239 240 243 245 246 249 251 260 263 259 262 273 278 283 279 273 276 270 268 266 271 254 215 223 232 240 246 248 249 247 246 247 247 246 245 243 241 239
240 242 244 244 245 249 248 249 257 266 263 264 270 274 271 269 266 270 271 257 260 271 267 252 229 224 234 239 240 241 242 243 243 244 245 245 244 243
241 241 243 244 252 252 259 257 256 257 264 266 269 271 272 276 274 277 280 281 269 263 267 264 249 240 230 228 229 232 234 237 240 241 243 244 244 243
245 245 245 230 230 228 240 251 259 259 263 270 271 273 276 276 276 277 279 278 277 268 267 269 267 264 259 255 224 206 219 234 241 243 244 244 243 242
249 248 250 247 229 237 228 226 237 241 246 257 267 270 275 272 275 273 269 275 281 289 283 274 271 266 262 256 207 206 221 233 241 243 244 244 244 242
250 249 250 255 247 243 248 244 242 236 231 233 248 257 261 269 266 266 273 270 265 257 256 266 268 267 267 263 220 209 222 232 238 241 242 244 244 244
249 249 249 250 243 227 244 253 254 253 241 232 239 250 260 262 260 263 262 263 265 263 249 255 265 268 268 264 248 211 217 227 233 237 239 240 241 242
251 249 242 242 244 218 237 248 253 254 258 246 228 234 243 242 228 237 251 257 263 267 261 255 262 268 270 262 257 244 228 225 227 231 232 233 231 236
262 258 254 220 223 223 230 245 251 258 262 259 253 245 239 239 233 226 232 246 257 261 264 260 263 264 265 271 269 261 256 253 236 230 224 224 219 223
267 268 270 242 221 223 228 241 244 247 254 255 253 250 246 242 239 236 233 237 246 258 268 271 268 266 269 271 270 266 258 252 253 254 249 217 212 220
264 270 276 273 252 241 236 235 233 237 243 247 248 249 249 250 249 242 239 238 244 248 251 249 251 256 257 262 266 266 265 259 251 251 250 246 237 223
258 264 254 248 246 256 256 232 231 239 242 245 248 249 250 247 241 242 243 241 242 244 238 238 242 249 253 256 261 263 262 263 259 252 250 250 245 240
302 278 269 262 253 247 244 242 239 235 234 240 246 248 247 246 245 243 244 246 248 252 252 239 233 233 244 253 257 257 258 258 257 256 250 252 249 245
277 269 267 265 262 260 257 253 245 242 241 241 241 243 244 245 245 242 240 241 246 251 255 256 250 243 241 241 237 252 256 256 256 250 247 250 251 245
253 259 262 264 264 263 260 258 256 252 245 242 243 243 243 244 244 243 242 242 244 247 252 253 250 247 249 252 240 219 240 253 255 251 246 245 251 252
254 262 267 269 268 267 266 264 261 258 250 246 245 245 243 243 242 241 240 242 246 249 251 249 246 244 248 258 267 252 222 241 251 252 252 250 251 250
281 279 277 277 275 273 270 267 265 262 259 254 249 246 243 242 242 243 243 242 244 249 251 251 250 249 255 259 260 259 248 223 235 249 256 257 255 250
287 284 283 280 278 274 270 267 263 260 259 254 251 247 243 241 242 244 246 246 243 245 250 254 253 248 246 248 253 260 263 251 229 231 242 252 258 257
292 288 286 283 277 273 270 266 263 261 259 257 253 248 243 241 242 244 246 247 248 251 254 257 256 250 249 249 254 258 262 260 252 242 236 226 230 244